CW6451 Weather Reports


Display with metric or nautical units.
time (UTC)temp
F
wind
direction
speed
MPH
gust
MPH
rain 1hr
in
rain 24hr
in
rain mn
in
humidity
%
barometer
mb
20260506094538 53 216 6.0 14.0 0.00 0.00 0.00 96 1012.8
20260506093041 53 201 5.0 14.0 0.00 0.00 0.00 96 1012.9
20260506091545 53 209 5.0 19.0 0.00 0.00 0.00 96 1013.0
20260506090039 53 223 5.0 14.0 0.00 0.00 0.00 96 1013.0
20260506084540 53 238 4.0 12.0 0.00 0.00 0.00 95 1013.1
20260506083042 53 181 7.0 16.0 0.00 0.00 0.00 95 1013.2
20260506081544 53 229 4.0 14.0 0.00 0.00 0.00 95 1013.2
20260506073055 53 182 6.0 16.0 0.00 0.00 0.00 95 1013.2
20260506071541 53 212 5.0 15.0 0.00 0.00 0.00 95 1013.2
20260506061545 53 218 6.0 14.0 0.00 0.00 0.00 94 1013.3
20260506044546 53 214 7.0 18.0 0.00 0.00 0.00 94 1013.6
20260506043040 53 230 5.0 13.0 0.00 0.00 0.00 93 1013.7
20260506041550 53 161 6.0 14.0 0.00 0.00 0.00 92 1013.7
20260506040040 53 239 6.0 15.0 0.00 0.00 0.00 92 1013.7
20260506034539 53 239 6.0 14.0 0.00 0.00 0.00 91 1013.8
20260506033038 53 217 8.0 17.0 0.00 0.00 0.00 91 1013.6
20260506031538 54 208 8.0 15.0 0.00 0.00 0.00 91 1013.4
20260506030042 53 221 9.0 17.0 0.00 0.00 0.00 90 1013.4
20260506024539 54 241 6.0 14.0 0.00 0.00 0.00 89 1013.4
20260506023040 54 193 8.0 18.0 0.00 0.00 0.00 88 1013.3
20260506021546 54 200 7.0 19.0 0.00 0.00 0.00 87 1013.3
20260506020037 54 225 5.0 17.0 0.00 0.00 0.00 86 1013.4
20260506014537 54 252 8.0 16.0 0.00 0.00 0.00 85 1013.1
20260506013047 54 213 8.0 23.0 0.00 0.00 0.00 85 1013.0
20260506011604 54 185 6.0 16.0 0.00 0.00 0.00 85 1012.9
20260506010039 53 203 6.0 15.0 0.00 0.00 0.00 86 1012.8
20260506004543 53 228 7.0 18.0 0.00 0.00 0.00 87 1012.7
20260506003043 53 219 5.0 17.0 0.00 0.00 0.00 87 1012.4
20260506001536 54 186 5.0 20.0 0.00 0.00 0.00 86 1012.2
20260506000057 54 183 9.0 19.0 0.00 0.00 0.00 86 1011.4
20260505234540 54 190 7.0 17.0 0.00 0.00 0.00 87 1011.6
20260505233045 54 210 7.0 15.0 0.00 0.00 0.00 86 1011.9
20260505231541 54 207 6.0 15.0 0.00 0.00 0.00 86 1012.0
20260505230038 54 234 6.0 17.0 0.00 0.00 0.00 86 1012.0
20260505224546 54 235 6.0 17.0 0.00 0.00 0.00 85 1011.5
20260505223042 54 198 7.0 18.0 0.00 0.00 0.00 85 1011.3
20260505221546 55 239 6.0 19.0 0.00 0.00 0.00 84 1011.5
20260505220053 56 223 9.0 17.0 0.00 0.00 0.00 82 1011.6
20260505214543 56 217 8.0 19.0 0.00 0.00 0.00 83 1011.5
20260505213044 57 187 8.0 24.0 0.00 0.00 0.00 82 1011.5
20260505211540 57 251 6.0 16.0 0.00 0.00 0.00 81 1011.4
20260505210046 58 191 9.0 17.0 0.00 0.00 0.00 80 1011.0
20260505204547 58 163 7.0 16.0 0.00 0.00 0.00 80 1011.2
20260505203038 59 198 7.0 15.0 0.00 0.00 0.00 79 1011.1
20260505201541 59 201 9.0 17.0 0.00 0.00 0.00 79 1011.2
20260505200042 58 173 8.0 16.0 0.00 0.00 0.00 80 1011.1
20260505194540 59 207 9.0 24.0 0.00 0.00 0.00 78 1011.4
20260505193042 59 239 7.0 17.0 0.00 0.00 0.00 80 1011.4
20260505191537 60 168 7.0 19.0 0.00 0.00 0.00 79 1011.5
20260505190037 60 193 7.0 16.0 0.00 0.00 0.00 79 1011.4
20260505184537 60 190 8.0 18.0 0.00 0.00 0.00 79 1011.7
20260505183049 60 204 6.0 15.0 0.00 0.00 0.00 79 1011.7
20260505181549 60 190 7.0 15.0 0.00 0.00 0.00 80 1011.8
20260505180040 60 207 9.0 19.0 0.00 0.00 0.00 79 1011.8
20260505174544 60 213 8.0 22.0 0.00 0.00 0.00 79 1011.8
20260505173042 60 212 11.0 20.0 0.00 0.00 0.00 80 1011.8
20260505171546 59 207 8.0 21.0 0.00 0.00 0.00 82 1012.1
20260505170042 58 224 11.0 23.0 0.00 0.00 0.00 82 1012.2
20260505164553 58 242 9.0 19.0 0.00 0.00 0.00 82 1012.4
20260505163039 58 168 9.0 21.0 0.00 0.00 0.00 82 1012.2
20260505161553 58 250 10.0 21.0 0.00 0.00 0.00 83 1012.5
20260505153045 58 190 7.0 17.0 0.00 0.00 0.00 84 1012.7
20260505151538 57 163 8.0 18.0 0.00 0.00 0.00 84 1012.5
20260505124549 55 183 7.0 15.0 0.00 0.00 0.00 88 1012.6
20260505123043 54 233 7.0 18.0 0.00 0.00 0.00 88 1012.2
20260505121549 54 240 4.0 14.0 0.00 0.00 0.00 89 1012.3
20260505120048 54 256 5.0 21.0 0.00 0.00 0.00 90 1012.3
20260505114536 53 200 7.0 13.0 0.00 0.00 0.00 90 1012.0
20260505113051 52 175 5.0 13.0 0.00 0.00 0.00 91 1012.1
20260505111538 52 213 6.0 12.0 0.00 0.00 0.00 91 1012.1
20260505101539 50 180 3.0 10.0 0.00 0.00 0.00 92 1011.9
20260505100039 50 199 4.0 9.0 0.00 0.00 0.00 92 1011.8